AO-07 1 07530U 74089B 15064.17608950 -.00000042 00000-0 97889-5 0 9998 2 07530 101.5092 042.7459 0012114 144.2599 281.9296 12.53612293844220 FO-29 1 24278U 96046B 15063.53456291 .00000013 00000-0 50542-4 0 9992 2 24278 098.5286 046.5378 0350177 342.3688 163.0740 13.53045745915871 SO-33 1 25509U 98061B 15063.57099449 .00001134 00000-0 20835-3 0 9997 2 25509 031.4333 124.6824 0348395 236.2260 120.4715 14.29876199854430 RS-22 1 27939U 03042A 15064.80699779 .00001471 00000-0 27746-3 0 9992 2 27939 097.8310 231.3808 0012999 002.8296 357.2984 14.65842031611046 HO-68 1 36122U 09072B 15064.57138388 -.00000060 00000-0 -43517-4 0 9993 2 36122 100.2111 113.0130 0007500 002.5066 357.6083 13.16324289250820 AO-73 1 39444U 13066AE 15063.63989653 .00003355 00000-0 43870-3 0 9995 2 39444 097.7431 130.2045 0061753 116.1199 244.6384 14.79741751 67956 EO-79 1 40025U 14033R 15064.65081843 .00002722 00000-0 31245-3 0 9994 2 40025 097.9639 324.7442 0013319 156.3076 203.8766 14.86641786 38416 UO-11 1 14781U 84021B 15063.47113147 .00001275 00000-0 16634-3 0 9997 2 14781 097.8156 123.0717 0009784 058.4308 301.7859 14.82198595666515 AO-16 1 20439U 90005D 15063.44096635 .00000252 00000-0 10881-3 0 9994 2 20439 098.5332 001.2211 0011936 108.0900 320.0740 14.32498288311746 LO-19 1 20442U 90005G 15063.37772820 .00000248 00000-0 10687-3 0 9996 2 20442 098.5043 001.0318 0012967 097.6640 262.6017 14.32693573311937 AO-27 1 22825U 93061C 15063.46571461 .00000216 00000-0 10150-3 0 9996 2 22825 098.6971 013.6170 0007332 254.0335 245.8166 14.29842557117970 IO-26 1 22826U 93061D 15064.42769278 .00000227 00000-0 10494-3 0 9992 2 22826 098.6915 014.7584 0007894 241.8802 118.1583 14.30155808118251 GO-32 1 25397U 98043D 15064.37833661 .00000115 00000-0 69097-4 0 9995 2 25397 098.5078 018.1434 0000121 297.9591 214.9851 14.23522093865024 NO-44 1 26931U 01043C 15063.54151942 .00000223 00000-0 11772-3 0 9993 2 26931 067.0502 087.0201 0006698 264.0640 095.9698 14.30266795700839 SO-50 1 27607U 02058C 15063.66714119 .00001390 00000-0 22005-3 0 9992 2 27607 064.5556 157.8904 0075452 308.9637 050.4757 14.74494408655872 CO-55 1 27844U 03031E 15064.48300694 .00000448 00000-0 22372-3 0 9997 2 27844 098.6977 074.4853 0008773 236.8645 286.9502 14.21728413605706 CO-57 1 27848U 03031J 15064.47794405 .00000369 00000-0 18918-3 0 9990 2 27848 098.7073 074.3333 0008612 244.9014 282.4159 14.21385551605613 AO-51 1 28375U 04025K 15063.78484271 .00000419 00000-0 13713-3 0 9994 2 28375 098.2831 007.2869 0081640 285.2582 073.9593 14.41599476561447 CP3 1 31129U 07012N 15064.42612911 .00001783 00000-0 39527-3 0 9996 2 31129 097.9689 034.7788 0095604 277.3539 236.4875 14.55548192418027 CO-65 1 32785U 08021C 15063.85621485 .00002375 00000-0 27419-3 0 9993 2 32785 097.6632 111.2148 0014706 055.2007 359.3579 14.86456989370736 PRISM 1 33493U 09002B 15064.80416369 .00005159 00000-0 51055-3 0 9995 2 33493 098.2535 257.2117 0016287 311.5047 048.4808 14.92250101331156 SOHLA-1 1 33496U 09002E 15063.43746072 .00000919 00000-0 15726-3 0 9997 2 33496 098.1956 190.5379 0007286 129.9989 272.4391 14.71222877327774 TISAT-1 1 36799U 10035E 15064.54308564 .00003942 00000-0 43773-3 0 9999 2 36799 098.0127 163.8006 0013269 182.5300 298.7747 14.87742442251541 STUDSAT 1 36801U 10035G 15064.35031792 .00025161 00000-0 16764-2 0 9994 2 36801 098.0518 178.4911 0006067 141.0087 274.2717 15.07066098252306 ALMASAT-1 1 38078U 12006B 15064.38688646 .00035624 32925-5 66684-3 0 9999 2 38078 069.4598 140.6422 0513522 040.1255 323.6607 14.69622710159733 XATCOBEO 1 38082U 12006F 14243.34478676 .13583328 43697-5 37939-3 0 9990 2 38082 069.3815 097.0364 0033293 225.1799 135.4582 16.41261006136239 CUBEBUG-1 1 39153U 13018D 15064.51006481 .00002338 00000-0 32418-3 0 9992 2 39153 098.0216 149.1848 0016656 225.1464 134.8395 14.78833058100159 ESTCUBE-1 1 39161U 13021C 15064.81044394 .00001540 00000-0 25985-3 0 9998 2 39161 098.0760 148.6461 0008374 285.4189 074.6101 14.70861218 98049 DUCHIFAT-1 1 40021U 14033M 15064.46119698 .00003667 00000-0 41212-3 0 9993 2 40021 097.9639 324.7377 0014295 159.2826 200.8985 14.87281604 38384 NANOSATCBR1 1 40024U 14033Q 15064.82905068 .00003925 00000-0 44403-3 0 9992 2 40024 097.9613 324.9786 0013800 156.7827 203.4117 14.86970539 38432 DTUSAT-2 1 40030U 14033W 15064.51480362 .00002701 00000-0 31307-3 0 9990 2 40030 097.9605 324.4227 0013557 151.0146 209.1851 14.86251193 38386 ANTELSAT 1 40034U 14033AA 15064.68925082 .00001938 00000-0 30527-3 0 9999 2 40034 097.9586 318.9664 0062131 090.8022 270.0315 14.72313385 38060 MET-2/21 1 22782U 93055A 15064.25869828 .00000051 00000-0 32513-4 0 9991 2 22782 082.5521 326.1482 0021067 252.1183 233.9322 13.83763946 86222 OKEAN-4 1 23317U 94066A 15064.04047955 .00002027 00000-0 22649-3 0 9998 2 23317 082.5403 183.2253 0019184 317.6289 170.2649 14.86385097101847 NOAA-14 1 23455U 94089A 15064.54711410 .00000056 00000-0 52077-4 0 9994 2 23455 098.7573 148.1116 0009749 022.1888 102.0365 14.14025820 40884 NOAA-15 1 25338U 98030A 15064.49293444 .00000247 00000-0 12319-3 0 9998 2 25338 098.7698 063.0801 0011717 107.9909 252.2548 14.25574998874067 RESURS 1 25394U 98043A 15064.54687955 .00000062 00000-0 44870-4 0 9997 2 25394 098.4527 023.4383 0001029 161.3906 330.8099 14.24445027865522 FENGYUN1 1 25730U 99025A 15063.48126344 .00001282 00000-0 70949-3 0 9994 2 25730 098.9353 028.4442 0020735 086.9318 058.5822 14.13033144814267 OKEAN-0 1 25860U 99039A 15064.47554376 .00001235 00000-0 18757-3 0 9990 2 25860 098.0817 032.4412 0001010 072.4983 075.9360 14.75852807840680 NOAA-16 1 26536U 00055A 15064.50532097 .00000058 00000-0 55119-4 0 9997 2 26536 098.9546 130.5280 0010956 161.1072 199.0508 14.13079339745012 NOAA-17 1 27453U 02032A 15064.57207743 .00000114 00000-0 66205-4 0 9998 2 27453 098.3328 055.7408 0012709 123.8176 236.4216 14.24858113659902 NOAA-18 1 28654U 05018A 15064.47765441 .00000212 00000-0 14075-3 0 9998 2 28654 099.1778 054.6280 0013321 250.3865 109.5868 14.12158310504431 NOAA-19 1 33591U 09005A 15064.49091319 .00000292 00000-0 18427-3 0 9995 2 33591 098.9788 014.1870 0015074 101.2618 259.0248 14.11884754312862 HUBBLE 1 20580U 90037B 15064.49188007 .00003069 00000-0 18881-3 0 9994 2 20580 028.4701 117.6879 0003020 196.8722 307.0527 15.06929421164158 ISS 1 25544U 98067A 15064.78949073 .00014390 00000-0 21837-3 0 9994 2 25544 051.6445 240.4797 0008765 072.8089 052.5040 15.54828216931944 CO-58 1 28895U 05043F 15064.48540137 .00001487 00000-0 30135-3 0 9997 2 28895 097.8228 257.6783 0015912 264.9860 094.9526 14.62549599498438 FALCON 1 30776U 07006E 15064.69029338 .00012605 00000-0 54082-3 0 9998 2 30776 035.4282 288.8377 0001698 044.2160 001.5925 15.21970279440501 MAST 1 31126U 07012K 15063.87627936 .00001139 00000-0 25622-3 0 9990 2 31126 097.9487 036.7313 0089818 261.1793 128.0030 14.55867037418312 CAPE1 1 31130U 07012P 15063.54255310 .00001783 00000-0 39748-3 0 9991 2 31130 097.9702 033.4364 0096301 281.8996 077.1416 14.55240608417664 COMPASS 1 32787U 08021E 15064.61318704 .00004449 00000-0 46648-3 0 9996 2 32787 097.6654 115.4436 0014067 042.4498 317.7805 14.89963439371085 AAUSAT2 1 32788U 08021F 15064.34126098 .00004778 00000-0 48900-3 0 9998 2 32788 097.6660 116.5234 0013417 040.8012 319.4209 14.90913891371124 DO-64 1 32789U 08021G 15064.11622966 .00010568 00000-0 89783-3 0 9997 2 32789 097.6860 125.7263 0010957 023.7477 006.6228 14.98011242371495 CO-66 1 32791U 08021J 15064.43378565 .00003112 00000-0 34258-3 0 9992 2 32791 097.6650 113.4154 0015032 047.6267 312.6220 14.88187896370881 RS-30 1 32953U 08025A 15064.89181138 .00000010 00000-0 -13620-7 0 9993 2 32953 082.5026 038.4728 0017938 309.5306 050.4193 12.43057133307778 METEOR-M 1 35865U 09049A 15064.56428778 .00000095 00000-0 62092-4 0 9999 2 35865 098.5146 108.5547 0003558 064.1961 295.9594 14.21996333283489 RS-38 1 35869U 09049E 15064.54689048 .00000050 00000-0 41489-4 0 9998 2 35869 098.5073 108.2184 0005689 061.5142 298.6609 14.22275054283528 JUGNU 1 37839U 11058B 15063.53534615 .00000537 00000-0 14485-3 0 9992 2 37839 019.9613 116.9284 0018960 333.7786 173.3798 14.12429515175402 SRMSAT 1 37841U 11058D 15063.61377854 .00000477 00000-0 11778-3 0 9999 2 37841 019.9715 141.0267 0011674 264.1995 245.8582 14.10448158175174 RAX-2 1 37853U 11061D 15064.49334757 .00006731 00000-0 42565-3 0 9995 2 37853 101.7097 224.7185 0201284 018.2130 016.8682 14.94396751181611 AUBIESAT 1 37854U 11061E 15064.40614306 .00008424 00000-0 50876-3 0 9993 2 37854 101.7158 227.5350 0197369 014.1735 015.5219 14.96315012181692 HRBE 1 37855U 11061F 15063.93262941 .00007941 00000-0 48894-3 0 9995 2 37855 101.7163 225.6993 0200555 017.7243 343.0830 14.95275154181561 RS-39 1 38051U 11062C 14288.65876392 .70201582 12497-4 27925-2 0 9995 2 38051 051.5964 324.1908 0006422 269.6897 186.8903 16.43533377153081 E-STAR 1 38079U 12006C 15016.13455217 .17990388 48979-5 52837-3 0 9992 2 38079 069.3967 125.0648 0013168 047.0341 316.5109 16.44007688156194 GOLIAT 1 38085U 12006J 15047.13271005 .15174231 50628-5 38163-3 0 9993 2 38085 069.4022 049.8202 0017770 344.8867 016.3100 16.44194733160691 HORYU-2 1 38340U 12025D 15063.85434941 .00003051 00000-0 47347-3 0 9998 2 38340 098.3011 031.2012 0013480 070.5296 289.7367 14.73834043150168 RS-40 1 38735U 12041C 15064.56596166 .00000040 00000-0 21992-3 0 9994 2 38735 082.4767 124.5982 0017766 049.4061 310.8562 12.42567450118049 PROITERES 1 38756U 12047B 15064.79792191 .00001166 00000-0 17862-3 0 9995 2 38756 098.2178 162.3747 0010979 268.1861 091.8100 14.75596581133753 BEESAT-3 1 39134U 13015E 15064.32666045 .00011719 00000-0 71361-3 0 9998 2 39134 064.8746 029.3639 0034189 266.0737 093.6477 15.10245276103008 BEESAT-2 1 39136U 13015G 15063.74948853 .00010955 00000-0 69228-3 0 9995 2 39136 064.8749 032.8320 0034790 266.1215 093.5929 15.08920956102898 LO-75 1 39382U 13064C 14295.69194059 .07301741 00000-0 36367-2 0 9993 2 39382 040.4713 030.2705 0002289 341.7175 018.4586 16.19795749470823 ZACUBE-1 1 39417U 13066B 15064.45293196 .00002643 00000-0 35052-3 0 9998 2 39417 097.7425 130.8281 0062281 114.0376 246.7371 14.79302832 69299 TRITON-1 1 39427U 13066M 15063.40775237 .00002193 00000-0 36660-3 0 9990 2 39427 097.7294 120.2708 0117449 141.1146 219.8581 14.66321791 68513 DELFIN3XT 1 39428U 13066N 15063.45190473 .00003742 00000-0 63122-3 0 9993 2 39428 097.7294 118.8263 0126531 145.2078 215.7482 14.64832740 68406 GOMX-1 1 39430U 13066Q 15064.57683220 .00001794 00000-0 34170-3 0 9993 2 39430 097.7223 115.1164 0155133 155.6642 205.2023 14.57734049 68289 MO-76 1 39436U 13066W 15063.68535009 .00031889 00000-0 24766-2 0 9998 2 39436 097.7505 139.6049 0022732 096.3544 264.0777 15.01159176 69788 LO-74 1 39440U 13066AA 15064.63693393 .00002388 00000-0 34942-3 0 9990 2 39440 097.7376 127.2113 0083933 122.0189 238.9210 14.74153109 69080 PUCPSAT-1 1 39442U 13066AC 15063.94280535 .00004483 00000-0 48973-3 0 9992 2 39442 097.7500 136.3489 0034938 106.9716 253.5334 14.87926675 68366 SHINAISAT 1 39572U 14009A 14328.13084988 .28848087 76253-5 66603-3 0 9996 2 39572 064.9728 197.0096 0013534 259.7861 100.1802 16.45181032 42403 TEIKYOSAT 1 39576U 14009E 14297.85867254 .09345816 76764-5 25176-3 0 9997 2 39576 064.9818 300.5833 0008491 317.3597 044.3862 16.45008906 37698 CO-77 1 39577U 14009F 14244.78324653 .10543803 76292-5 32273-3 0 9993 2 39577 064.9920 123.7668 0014904 269.7208 091.1897 16.43552757 29380 SPROUT 1 39770U 14029E 15064.32227878 .00002253 00000-0 28015-3 0 9998 2 39770 097.8686 162.6072 0010406 173.0267 187.1071 14.83492653 42234 POPSAT-HIP1 1 40028U 14033U 15064.81362162 .00002603 00000-0 30014-3 0 9992 2 40028 097.9656 324.9622 0014880 155.6097 204.5868 14.86486741 38429 EO-80 1 40032U 14033Y 15064.51961229 .00002573 00000-0 29887-3 0 9995 2 40032 097.9630 324.4434 0012873 149.5218 210.6757 14.86211513 38382 VELOX-1 1 40057U 14034E 15064.79164196 .00002708 00000-0 40716-3 0 9995 2 40057 098.2236 141.2035 0011132 203.3982 156.6740 14.75303815 36633 DAURIA DX 1 1 40071U 14037C 15064.77422100 .00001303 00000-0 17921-3 0 9996 2 40071 098.3688 131.8973 0008180 203.5841 156.4999 14.80140340 35497 UKUBE-1 1 40074U 14037F 15064.79226702 .00002738 00000-0 35522-3 0 9991 2 40074 098.3707 132.3940 0004275 203.0006 157.1029 14.81662120 35523 CHASQUI-1 1 40117U 98067ET 15014.73322295 .07508583 12315-4 10026-2 0 9990 2 40117 051.6189 112.4445 0004239 337.2783 022.7551 16.34635278 23368 HODOYOSHI-1 1 40299U 14070B 15064.78288318 .00005475 00000-0 26942-3 0 9994 2 40299 097.4625 147.6352 0014495 130.1045 325.4083 15.18318757 18127 CHUBUSAT-1 1 40300U 14070C 15064.81349325 .00007582 00000-0 39019-3 0 9997 2 40300 097.4603 147.2641 0024235 131.6876 337.7799 15.16453732 18103 QSAT-EOS 1 40301U 14070D 15064.78132015 .00013365 00000-0 70981-3 0 9999 2 40301 097.4570 146.8001 0034778 132.8301 322.7536 15.14902803 18076 TSUBAME 1 40302U 14070E 15064.73574582 .00006729 00000-0 38886-3 0 9998 2 40302 097.4543 146.2416 0045400 134.0530 023.7540 15.11731423 18037 FIREBIRD FU3 1 40377U 15003B 15064.49114239 .00012135 00000-0 63408-3 0 9995 2 40377 099.1277 078.9305 0164033 232.3359 126.2801 15.05128849 4944 FIREBIRD FU4 1 40378U 15003C 15064.49051899 .00012080 00000-0 63094-3 0 9998 2 40378 099.1275 078.9316 0163949 232.3248 126.2832 15.05154816 4944 GRIFEX 1 40379U 15003D 15064.82672797 .00010057 00000-0 52993-3 0 9990 2 40379 099.1279 079.3222 0164019 232.1694 126.4495 15.04921695 4990 /EX
